status,avgMeasuredTime,avgSpeed,extID,medianMeasuredTime,TIMESTAMP,vehicleCount,_id,REPORT_ID
OK,111,27,615,111,2014-08-01T07:50:00,3,20746167,195737
OK,100,31,615,100,2014-08-01T07:55:00,2,20746339,195737
OK,90,34,615,90,2014-08-01T08:00:00,1,20746670,195737
OK,78,39,615,78,2014-08-01T08:05:00,2,20747119,195737
OK,36,86,615,36,2014-08-01T08:10:00,1,20747492,195737
OK,36,86,615,36,2014-08-01T08:15:00,0,20747941,195737
OK,94,33,615,94,2014-08-01T08:20:00,5,20748390,195737
OK,92,33,615,92,2014-08-01T08:25:00,4,20748839,195737
OK,40,77,615,40,2014-08-01T08:30:00,0,20749288,195737
OK,40,77,615,40,2014-08-01T08:35:00,0,20749737,195737
OK,100,31,615,100,2014-08-01T08:40:00,2,20750186,195737
OK,94,33,615,94,2014-08-01T08:45:00,4,20750635,195737
OK,124,25,615,124,2014-08-01T08:50:00,2,20751084,195737
OK,125,24,615,125,2014-08-01T08:55:00,5,20751533,195737
OK,125,24,615,125,2014-08-01T09:00:00,3,20751982,195737
OK,48,64,615,48,2014-08-01T09:05:00,1,20752431,195737
OK,93,33,615,93,2014-08-01T09:10:00,3,20752880,195737
OK,93,33,615,93,2014-08-01T09:15:00,3,20753329,195737
OK,59,52,615,59,2014-08-01T09:20:00,0,20753778,195737
OK,125,24,615,125,2014-08-01T09:25:00,4,20754227,195737
OK,118,26,615,118,2014-08-01T09:30:00,5,20754676,195737
OK,64,48,615,64,2014-08-01T09:35:00,3,20755125,195737
OK,50,62,615,50,2014-08-01T09:40:00,5,20755574,195737
OK,96,32,615,96,2014-08-01T09:45:00,7,20756023,195737
OK,121,25,615,121,2014-08-01T09:50:00,5,20756472,195737
OK,131,23,615,131,2014-08-01T09:55:00,1,20756921,195737
OK,119,26,615,119,2014-08-01T10:00:00,4,20757370,195737
OK,114,27,615,114,2014-08-01T10:05:00,4,20757819,195737
OK,104,29,615,104,2014-08-01T10:10:00,4,20758268,195737
OK,115,27,615,115,2014-08-01T10:15:00,4,20758717,195737
OK,88,35,615,88,2014-08-01T10:20:00,4,20759166,195737
OK,88,35,615,88,2014-08-01T10:25:00,3,20759615,195737
OK,56,55,615,56,2014-08-01T10:30:00,2,20760064,195737
OK,68,45,615,68,2014-08-01T10:35:00,3,20760513,195737
OK,78,39,615,78,2014-08-01T10:40:00,3,20760962,195737
OK,104,29,615,104,2014-08-01T10:45:00,4,20761411,195737
OK,122,25,615,122,2014-08-01T10:50:00,5,20761860,195737
OK,54,57,615,54,2014-08-01T10:55:00,3,20762309,195737
OK,123,25,615,123,2014-08-01T11:00:00,1,20762758,195737
OK,123,25,615,123,2014-08-01T11:05:00,5,20763207,195737
OK,116,26,615,116,2014-08-01T11:10:00,7,20763656,195737
OK,150,20,615,150,2014-08-01T11:15:00,5,20764105,195737
OK,150,20,615,150,2014-08-01T11:20:00,0,20764553,195737
OK,32,97,615,32,2014-08-01T11:25:00,1,20765002,195737
OK,44,70,615,44,2014-08-01T11:30:00,3,20765451,195737
OK,77,40,615,77,2014-08-01T11:35:00,3,20765900,195737
OK,82,37,615,82,2014-08-01T11:40:00,3,20766349,195737
OK,82,37,615,82,2014-08-01T11:45:00,3,20766798,195737
OK,172,18,615,172,2014-08-01T11:50:00,1,20767247,195737
OK,131,23,615,131,2014-08-01T11:55:00,2,20767696,195737
OK,221,14,615,221,2014-08-01T12:00:00,1,20768145,195737
OK,119,26,615,119,2014-08-01T12:05:00,3,20768594,195737
OK,109,28,615,109,2014-08-01T12:10:00,7,20769043,195737
OK,109,28,615,109,2014-08-01T12:15:00,6,20769492,195737
OK,134,23,615,134,2014-08-01T12:20:00,7,20769941,195737
OK,150,20,615,150,2014-08-01T12:25:00,4,20770390,195737
OK,149,20,615,149,2014-08-01T12:30:00,2,20770839,195737
OK,114,27,615,114,2014-08-01T12:35:00,4,20771288,195737
OK,128,24,615,128,2014-08-01T12:40:00,6,20771737,195737
OK,128,24,615,128,2014-08-01T12:45:00,5,20772186,195737
OK,100,31,615,100,2014-08-01T12:50:00,5,20772635,195737
OK,205,15,615,205,2014-08-01T12:55:00,3,20773084,195737
OK,205,15,615,205,2014-08-01T13:00:00,5,20773533,195737
OK,132,23,615,132,2014-08-01T13:05:00,5,20773982,195737
OK,56,55,615,56,2014-08-01T13:10:00,3,20774431,195737
OK,136,22,615,136,2014-08-01T13:15:00,1,20774880,195737
OK,312,9,615,312,2014-08-01T13:20:00,1,20775329,195737
OK,239,12,615,239,2014-08-01T13:25:00,3,20775778,195737
OK,291,10,615,291,2014-08-01T13:30:00,8,20776227,195737
OK,210,14,615,210,2014-08-01T13:35:00,5,20776676,195737
OK,142,21,615,142,2014-08-01T13:40:00,3,20777125,195737
OK,114,27,615,114,2014-08-01T13:45:00,3,20777574,195737
OK,126,24,615,126,2014-08-01T13:50:00,8,20778023,195737
OK,139,22,615,139,2014-08-01T13:55:00,7,20778472,195737
OK,76,40,615,76,2014-08-01T14:00:00,1,20778921,195737
OK,76,40,615,76,2014-08-01T14:05:00,1,20779370,195737
OK,42,73,615,42,2014-08-01T14:10:00,1,20779819,195737
OK,42,73,615,42,2014-08-01T14:15:00,0,20780268,195737
OK,126,24,615,126,2014-08-01T14:20:00,4,20780717,195737
OK,84,36,615,84,2014-08-01T14:25:00,4,20781166,195737
OK,118,26,615,118,2014-08-01T14:30:00,3,20781615,195737
OK,226,13,615,226,2014-08-01T14:35:00,1,20782064,195737
OK,173,17,615,173,2014-08-01T14:40:00,2,20782513,195737
OK,173,17,615,173,2014-08-01T14:45:00,2,20782962,195737
OK,85,36,615,85,2014-08-01T14:50:00,3,20783411,195737
OK,78,39,615,78,2014-08-01T14:55:00,4,20783860,195737
OK,89,34,615,89,2014-08-01T15:00:00,2,20784309,195737
OK,99,31,615,99,2014-08-01T15:05:00,2,20784758,195737
OK,108,28,615,108,2014-08-01T15:10:00,2,20785207,195737
OK,127,24,615,127,2014-08-01T15:15:00,1,20785656,195737
OK,79,39,615,79,2014-08-01T15:20:00,1,20786105,195737
OK,88,35,615,88,2014-08-01T15:25:00,3,20786554,195737
OK,86,36,615,86,2014-08-01T15:30:00,5,20787003,195737
OK,46,67,615,46,2014-08-01T15:35:00,3,20787452,195737
OK,52,59,615,52,2014-08-01T15:40:00,1,20787901,195737
OK,74,41,615,74,2014-08-01T15:45:00,2,20788350,195737
OK,96,32,615,96,2014-08-01T15:50:00,2,20788799,195737
OK,120,25,615,120,2014-08-01T15:55:00,2,20789248,195737
OK,145,21,615,145,2014-08-01T16:00:00,1,20789697,195737
OK,145,21,615,145,2014-08-01T16:05:00,0,20790146,195737
OK,145,21,615,145,2014-08-01T16:10:00,0,20790595,195737
OK,36,86,615,36,2014-08-01T16:15:00,1,20791044,195737
OK,36,86,615,36,2014-08-01T16:20:00,1,20791493,195737
OK,82,37,615,82,2014-08-01T16:25:00,1,20791942,195737
OK,75,41,615,75,2014-08-01T16:30:00,2,20792391,195737
OK,69,45,615,69,2014-08-01T16:35:00,1,20792840,195737
OK,63,49,615,63,2014-08-01T16:40:00,1,20793289,195737
OK,72,43,615,72,2014-08-01T16:45:00,2,20793738,195737
OK,81,38,615,81,2014-08-01T16:50:00,1,20794187,195737
OK,81,38,615,81,2014-08-01T16:55:00,0,20794636,195737
OK,81,38,615,81,2014-08-01T17:00:00,0,20795085,195737
OK,60,51,615,60,2014-08-01T17:05:00,1,20795534,195737
OK,79,39,615,79,2014-08-01T17:10:00,2,20795983,195737
OK,99,31,615,99,2014-08-01T17:15:00,1,20796432,195737
OK,99,31,615,99,2014-08-01T17:20:00,0,20796881,195737
OK,133,23,615,133,2014-08-01T17:25:00,1,20797330,195737
OK,133,23,615,133,2014-08-01T17:30:00,1,20797779,195737
OK,133,23,615,133,2014-08-01T17:35:00,0,20798228,195737
OK,70,44,615,70,2014-08-01T17:40:00,1,20798677,195737
OK,70,44,615,70,2014-08-01T17:45:00,2,20799126,195737
OK,67,46,615,67,2014-08-01T17:50:00,2,20799575,195737
OK,87,35,615,87,2014-08-01T17:55:00,3,20800024,195737
OK,90,34,615,90,2014-08-01T18:00:00,0,20800473,195737
OK,67,46,615,67,2014-08-01T18:05:00,1,20800922,195737
OK,67,46,615,67,2014-08-01T18:10:00,1,20801371,195737
OK,67,46,615,67,2014-08-01T18:15:00,0,20801820,195737
OK,67,46,615,67,2014-08-01T18:20:00,0,20802269,195737
OK,67,46,615,67,2014-08-01T18:25:00,0,20802718,195737
OK,67,46,615,67,2014-08-01T18:30:00,0,20803167,195737
OK,41,75,615,41,2014-08-01T18:35:00,2,20803616,195737
OK,33,94,615,33,2014-08-01T18:40:00,3,20804065,195737
OK,32,97,615,32,2014-08-01T18:45:00,0,20804514,195737
OK,74,41,615,74,2014-08-01T18:50:00,1,20804963,195737
OK,74,41,615,74,2014-08-01T18:55:00,0,20805412,195737
OK,57,54,615,57,2014-08-01T19:00:00,2,20805861,195737
OK,57,54,615,57,2014-08-01T19:05:00,2,20806310,195737
OK,57,54,615,57,2014-08-01T19:10:00,0,20806759,195737
OK,57,54,615,57,2014-08-01T19:15:00,0,20807208,195737
OK,57,54,615,57,2014-08-01T19:20:00,0,20807657,195737
OK,92,33,615,92,2014-08-01T19:25:00,3,20808106,195737
OK,92,33,615,92,2014-08-01T19:30:00,3,20808555,195737
OK,93,33,615,93,2014-08-01T19:35:00,0,20809004,195737
OK,93,33,615,93,2014-08-01T19:40:00,0,20809453,195737
OK,93,33,615,93,2014-08-01T19:45:00,0,20809902,195737
OK,93,33,615,93,2014-08-01T19:50:00,0,20810351,195737
OK,63,49,615,63,2014-08-01T19:55:00,1,20810800,195737
OK,63,49,615,63,2014-08-01T20:00:00,0,20811248,195737
OK,63,49,615,63,2014-08-01T20:05:00,0,20811422,195737
OK,63,49,615,63,2014-08-01T20:10:00,0,20811622,195737
OK,63,49,615,63,2014-08-01T20:15:00,0,20811830,195737
OK,139,22,615,139,2014-08-01T20:20:00,1,20812037,195737
OK,139,22,615,139,2014-08-01T20:25:00,1,20812258,195737
OK,33,94,615,33,2014-08-01T20:30:00,1,20812471,195737
OK,33,94,615,33,2014-08-01T20:35:00,1,20812680,195737
OK,33,94,615,33,2014-08-01T20:40:00,0,20812883,195737
OK,33,94,615,33,2014-08-01T20:45:00,0,20813088,195737
OK,33,94,615,33,2014-08-01T20:50:00,0,20813299,195737
OK,33,94,615,33,2014-08-01T20:55:00,1,20813529,195737
OK,33,94,615,33,2014-08-01T21:00:00,0,20813767,195737
OK,33,94,615,33,2014-08-01T21:05:00,0,20813946,195737
OK,33,94,615,33,2014-08-01T21:10:00,0,20814184,195737
OK,33,94,615,33,2014-08-01T21:15:00,0,20814381,195737
OK,33,94,615,33,2014-08-01T21:20:00,0,20814586,195737
OK,33,94,615,33,2014-08-01T21:25:00,0,20814817,195737
OK,33,94,615,33,2014-08-01T21:30:00,0,20815091,195737
OK,40,77,615,40,2014-08-01T21:35:00,1,20815325,195737
OK,83,37,615,83,2014-08-01T21:40:00,1,20815548,195737
OK,83,37,615,83,2014-08-01T21:45:00,0,20815785,195737
OK,83,37,615,83,2014-08-01T21:50:00,0,20816026,195737
OK,83,37,615,83,2014-08-01T21:55:00,0,20816261,195737
OK,83,37,615,83,2014-08-01T22:00:00,0,20816529,195737
OK,83,37,615,83,2014-08-01T22:05:00,0,20816978,195737
OK,83,37,615,83,2014-08-01T22:10:00,0,20817300,195737
OK,83,37,615,83,2014-08-01T22:15:00,0,20817729,195737
OK,83,37,615,83,2014-08-01T22:20:00,0,20818019,195737
OK,83,37,615,83,2014-08-01T22:25:00,0,20818335,195737
OK,83,37,615,83,2014-08-01T22:30:00,0,20818669,195737
OK,83,37,615,83,2014-08-01T22:35:00,0,20818975,195737
OK,83,37,615,83,2014-08-01T22:40:00,0,20819153,195737
OK,83,37,615,83,2014-08-01T22:45:00,0,20819441,195737
OK,83,37,615,83,2014-08-01T22:50:00,0,20819676,195737
OK,83,37,615,83,2014-08-01T22:55:00,0,20819929,195737
OK,83,37,615,83,2014-08-01T23:00:00,0,20820105,195737
OK,83,37,615,83,2014-08-01T23:05:00,0,20820358,195737
OK,83,37,615,83,2014-08-01T23:10:00,0,20820588,195737
OK,83,37,615,83,2014-08-01T23:15:00,0,20820776,195737
OK,83,37,615,83,2014-08-01T23:20:00,0,20821031,195737
OK,83,37,615,83,2014-08-01T23:25:00,0,20821205,195737
OK,83,37,615,83,2014-08-01T23:30:00,0,20821430,195737
OK,83,37,615,83,2014-08-01T23:35:00,0,20821675,195737
OK,83,37,615,83,2014-08-01T23:40:00,0,20821854,195737
OK,83,37,615,83,2014-08-01T23:45:00,0,20822077,195737
OK,83,37,615,83,2014-08-01T23:50:00,0,20822344,195737
OK,83,37,615,83,2014-08-01T23:55:00,0,20822670,195737
OK,83,37,615,83,2014-08-02T00:00:00,0,20822968,195737
OK,83,37,615,83,2014-08-02T00:05:00,0,20823417,195737
OK,83,37,615,83,2014-08-02T00:10:00,0,20823866,195737
OK,83,37,615,83,2014-08-02T00:15:00,0,20824315,195737
OK,83,37,615,83,2014-08-02T00:20:00,0,20824764,195737
OK,83,37,615,83,2014-08-02T00:25:00,0,20825213,195737
OK,83,37,615,83,2014-08-02T00:30:00,0,20825662,195737
OK,83,37,615,83,2014-08-02T00:35:00,0,20826111,195737
OK,83,37,615,83,2014-08-02T00:40:00,0,20826560,195737
OK,83,37,615,83,2014-08-02T00:45:00,0,20827009,195737
OK,83,37,615,83,2014-08-02T00:50:00,0,20827458,195737
OK,83,37,615,83,2014-08-02T00:55:00,0,20827907,195737
OK,83,37,615,83,2014-08-02T01:00:00,0,20828356,195737
OK,83,37,615,83,2014-08-02T01:05:00,0,20828805,195737
OK,83,37,615,83,2014-08-02T01:10:00,0,20829254,195737
OK,83,37,615,83,2014-08-02T01:15:00,0,20829703,195737
OK,83,37,615,83,2014-08-02T01:20:00,0,20830152,195737
OK,83,37,615,83,2014-08-02T01:25:00,0,20830601,195737
OK,83,37,615,83,2014-08-02T01:30:00,0,20831050,195737
OK,83,37,615,83,2014-08-02T01:35:00,0,20831499,195737
OK,83,37,615,83,2014-08-02T01:40:00,0,20831948,195737
OK,83,37,615,83,2014-08-02T01:45:00,0,20832397,195737
OK,83,37,615,83,2014-08-02T01:50:00,0,20832846,195737
OK,83,37,615,83,2014-08-02T01:55:00,0,20833295,195737
OK,83,37,615,83,2014-08-02T02:00:00,0,20833744,195737
OK,83,37,615,83,2014-08-02T02:05:00,0,20834193,195737
OK,83,37,615,83,2014-08-02T02:10:00,0,20834642,195737
OK,83,37,615,83,2014-08-02T02:15:00,0,20835091,195737
OK,83,37,615,83,2014-08-02T02:20:00,0,20835540,195737
OK,83,37,615,83,2014-08-02T02:25:00,0,20835989,195737
OK,83,37,615,83,2014-08-02T02:30:00,0,20836438,195737
OK,35,88,615,35,2014-08-02T02:35:00,1,20836887,195737
OK,35,88,615,35,2014-08-02T02:40:00,0,20837336,195737
OK,44,70,615,44,2014-08-02T02:45:00,0,20837785,195737
OK,44,70,615,44,2014-08-02T02:50:00,0,20838234,195737
OK,44,70,615,44,2014-08-02T02:55:00,0,20838683,195737
OK,44,70,615,44,2014-08-02T03:00:00,0,20839132,195737
OK,44,70,615,44,2014-08-02T03:05:00,0,20839581,195737
OK,44,70,615,44,2014-08-02T03:10:00,0,20840030,195737
OK,44,70,615,44,2014-08-02T03:15:00,0,20840479,195737
OK,44,70,615,44,2014-08-02T03:20:00,0,20840928,195737
OK,44,70,615,44,2014-08-02T03:25:00,0,20841377,195737
OK,44,70,615,44,2014-08-02T03:30:00,0,20841826,195737
OK,44,70,615,44,2014-08-02T03:35:00,0,20842275,195737
OK,50,62,615,50,2014-08-02T03:40:00,2,20842724,195737
OK,50,62,615,50,2014-08-02T03:45:00,0,20843173,195737
OK,50,62,615,50,2014-08-02T03:50:00,0,20843622,195737
OK,79,39,615,79,2014-08-02T03:55:00,2,20844071,195737
OK,79,39,615,79,2014-08-02T04:00:00,2,20844520,195737
OK,87,35,615,87,2014-08-02T04:05:00,0,20844651,195737
OK,57,54,615,57,2014-08-02T04:10:00,2,20844981,195737
OK,53,58,615,53,2014-08-02T04:15:00,2,20845161,195737
OK,40,77,615,40,2014-08-02T04:20:00,1,20845517,195737
OK,40,77,615,40,2014-08-02T04:25:00,0,20845885,195737
OK,40,77,615,40,2014-08-02T04:30:00,0,20846073,195737
OK,40,77,615,40,2014-08-02T04:35:00,0,20846440,195737
OK,40,77,615,40,2014-08-02T04:40:00,0,20846823,195737
OK,40,77,615,40,2014-08-02T04:45:00,0,20847082,195737
OK,40,77,615,40,2014-08-02T04:50:00,0,20847448,195737
OK,40,77,615,40,2014-08-02T04:55:00,0,20847805,195737
OK,40,77,615,40,2014-08-02T05:00:00,0,20848165,195737
OK,35,88,615,35,2014-08-02T05:05:00,1,20848331,195737
OK,49,63,615,49,2014-08-02T05:10:00,2,20848683,195737
OK,64,48,615,64,2014-08-02T05:15:00,1,20848875,195737
OK,64,48,615,64,2014-08-02T05:20:00,0,20849219,195737
OK,64,48,615,64,2014-08-02T05:25:00,0,20849537,195737
OK,64,48,615,64,2014-08-02T05:30:00,0,20849744,195737
OK,60,51,615,60,2014-08-02T05:35:00,2,20850016,195737
OK,60,51,615,60,2014-08-02T05:40:00,0,20850309,195737
OK,60,51,615,60,2014-08-02T05:45:00,0,20850610,195737
OK,60,51,615,60,2014-08-02T05:50:00,0,20850968,195737
OK,61,50,615,61,2014-08-02T05:55:00,1,20851222,195737
OK,61,50,615,61,2014-08-02T06:00:00,1,20851525,195737
OK,61,50,615,61,2014-08-02T06:05:00,0,20851974,195737
OK,57,54,615,57,2014-08-02T06:10:00,1,20852423,195737
OK,57,54,615,57,2014-08-02T06:15:00,1,20852872,195737
OK,57,54,615,57,2014-08-02T06:20:00,0,20853321,195737
OK,43,72,615,43,2014-08-02T06:25:00,1,20853770,195737
OK,43,72,615,43,2014-08-02T06:30:00,1,20854219,195737
OK,43,72,615,43,2014-08-02T06:35:00,0,20854668,195737
OK,43,72,615,43,2014-08-02T06:40:00,0,20855117,195737
OK,43,72,615,43,2014-08-02T06:45:00,0,20855566,195737
OK,43,72,615,43,2014-08-02T06:50:00,1,20856015,195737
OK,42,73,615,42,2014-08-02T06:55:00,1,20856464,195737
OK,42,73,615,42,2014-08-02T07:00:00,0,20856913,195737
OK,56,55,615,56,2014-08-02T07:05:00,1,20857362,195737
OK,56,55,615,56,2014-08-02T07:10:00,1,20857811,195737
OK,91,34,615,91,2014-08-02T07:15:00,3,20858260,195737
OK,68,45,615,68,2014-08-02T07:20:00,3,20858709,195737
OK,68,45,615,68,2014-08-02T07:25:00,1,20859158,195737
OK,59,52,615,59,2014-08-02T07:30:00,1,20859607,195737
OK,60,51,615,60,2014-08-02T07:35:00,1,20860056,195737
OK,97,32,615,97,2014-08-02T07:40:00,2,20860505,195737
OK,135,23,615,135,2014-08-02T07:45:00,1,20860954,195737
OK,116,26,615,116,2014-08-02T07:50:00,1,20861403,195737
OK,116,26,615,116,2014-08-02T07:55:00,3,20861852,195737
OK,88,35,615,88,2014-08-02T08:00:00,2,20862301,195737
OK,155,20,615,155,2014-08-02T08:05:00,3,20862750,195737
OK,155,20,615,155,2014-08-02T08:10:00,3,20863199,195737
OK,156,19,615,156,2014-08-02T08:15:00,0,20863648,195737
OK,109,28,615,109,2014-08-02T08:20:00,1,20864097,195737
OK,84,36,615,84,2014-08-02T08:25:00,2,20864546,195737
OK,90,34,615,90,2014-08-02T08:30:00,1,20864995,195737
OK,90,34,615,90,2014-08-02T08:35:00,1,20865444,195737
OK,90,34,615,90,2014-08-02T08:40:00,0,20865893,195737
OK,82,37,615,82,2014-08-02T08:45:00,1,20866342,195737
OK,82,37,615,82,2014-08-02T08:50:00,1,20866791,195737
OK,174,17,615,174,2014-08-02T08:55:00,1,20867240,195737
OK,139,22,615,139,2014-08-02T09:00:00,4,20867689,195737
OK,139,22,615,139,2014-08-02T09:05:00,6,20868138,195737
OK,260,11,615,260,2014-08-02T09:10:00,3,20868587,195737
OK,95,32,615,95,2014-08-02T09:15:00,1,20869036,195737
OK,95,32,615,95,2014-08-02T09:20:00,1,20869485,195737
OK,230,13,615,230,2014-08-02T09:25:00,1,20869934,195737
OK,203,15,615,203,2014-08-02T09:30:00,2,20870383,195737
OK,230,13,615,230,2014-08-02T09:35:00,0,20870832,195737
OK,286,10,615,286,2014-08-02T09:40:00,1,20871281,195737
OK,235,13,615,235,2014-08-02T09:45:00,2,20871730,195737
OK,76,40,615,76,2014-08-02T09:50:00,6,20872179,195737
OK,84,36,615,84,2014-08-02T09:55:00,10,20872628,195737
OK,123,25,615,123,2014-08-02T10:00:00,8,20873077,195737
OK,122,25,615,122,2014-08-02T10:05:00,3,20873526,195737
OK,96,32,615,96,2014-08-02T10:10:00,1,20873975,195737
OK,52,59,615,52,2014-08-02T10:15:00,3,20874424,195737
OK,60,51,615,60,2014-08-02T10:20:00,5,20874873,195737
OK,87,35,615,87,2014-08-02T10:25:00,3,20875322,195737
OK,87,35,615,87,2014-08-02T10:30:00,1,20875771,195737
OK,87,35,615,87,2014-08-02T10:35:00,0,20876220,195737
OK,41,75,615,41,2014-08-02T10:40:00,2,20876669,195737
OK,51,60,615,51,2014-08-02T10:45:00,3,20877118,195737
OK,84,36,615,84,2014-08-02T10:50:00,3,20877567,195737
OK,76,40,615,76,2014-08-02T10:55:00,4,20878016,195737
OK,82,37,615,82,2014-08-02T11:00:00,4,20878465,195737
OK,141,22,615,141,2014-08-02T11:05:00,3,20878914,195737
OK,108,28,615,108,2014-08-02T11:10:00,6,20879363,195737
OK,88,35,615,88,2014-08-02T11:15:00,9,20879812,195737
OK,118,26,615,118,2014-08-02T11:20:00,4,20880261,195737
OK,120,25,615,120,2014-08-02T11:25:00,1,20880710,195737
OK,54,57,615,54,2014-08-02T11:30:00,1,20881159,195737
OK,54,57,615,54,2014-08-02T11:35:00,1,20881608,195737
OK,79,39,615,79,2014-08-02T11:40:00,2,20882057,195737
OK,99,31,615,99,2014-08-02T11:45:00,4,20882506,195737
OK,83,37,615,83,2014-08-02T11:50:00,3,20882955,195737
OK,80,38,615,80,2014-08-02T11:55:00,3,20883404,195737
OK,105,29,615,105,2014-08-02T12:00:00,2,20883853,195737
OK,79,39,615,79,2014-08-02T12:05:00,0,20884302,195737
OK,159,19,615,159,2014-08-02T12:10:00,5,20884751,195737
OK,159,19,615,159,2014-08-02T12:15:00,5,20885200,195737
OK,47,66,615,47,2014-08-02T12:20:00,2,20885649,195737
OK,127,24,615,127,2014-08-02T12:25:00,4,20886098,195737
OK,131,23,615,131,2014-08-02T12:30:00,5,20886547,195737
OK,115,27,615,115,2014-08-02T12:35:00,4,20886996,195737
OK,71,43,615,71,2014-08-02T12:40:00,3,20887445,195737
OK,72,43,615,72,2014-08-02T12:45:00,2,20887894,195737
OK,71,43,615,71,2014-08-02T12:50:00,1,20888343,195737
OK,131,23,615,131,2014-08-02T12:55:00,2,20888792,195737
OK,137,22,615,137,2014-08-02T13:00:00,3,20889241,195737
OK,137,22,615,137,2014-08-02T13:05:00,3,20889690,195737
OK,72,43,615,72,2014-08-02T13:10:00,3,20890139,195737
OK,119,26,615,119,2014-08-02T13:15:00,5,20890588,195737
OK,119,26,615,119,2014-08-02T13:20:00,5,20891037,195737
OK,100,31,615,100,2014-08-02T13:25:00,2,20891486,195737
OK,74,41,615,74,2014-08-02T13:30:00,2,20891935,195737
OK,107,29,615,107,2014-08-02T13:35:00,4,20892384,195737
OK,116,26,615,116,2014-08-02T13:40:00,5,20892833,195737
OK,152,20,615,152,2014-08-02T13:45:00,2,20893282,195737
OK,111,27,615,111,2014-08-02T13:50:00,4,20893731,195737
OK,71,43,615,71,2014-08-02T13:55:00,6,20894180,195737
OK,72,43,615,72,2014-08-02T14:00:00,5,20894629,195737
OK,58,53,615,58,2014-08-02T14:05:00,1,20895078,195737
OK,99,31,615,99,2014-08-02T14:10:00,2,20895527,195737
OK,86,36,615,86,2014-08-02T14:15:00,2,20895976,195737
OK,83,37,615,83,2014-08-02T14:20:00,2,20896425,195737
OK,76,40,615,76,2014-08-02T14:25:00,6,20896874,195737
OK,76,40,615,76,2014-08-02T14:30:00,6,20897323,195737
OK,78,39,615,78,2014-08-02T14:35:00,2,20897772,195737
OK,87,35,615,87,2014-08-02T14:40:00,1,20898221,195737
OK,143,21,615,143,2014-08-02T14:45:00,1,20898670,195737
OK,108,28,615,108,2014-08-02T14:50:00,2,20899119,195737
OK,73,42,615,73,2014-08-02T14:55:00,3,20899568,195737
OK,61,50,615,61,2014-08-02T15:00:00,3,20900017,195737
OK,61,50,615,61,2014-08-02T15:05:00,1,20900466,195737
OK,61,50,615,61,2014-08-02T15:10:00,0,20900915,195737
OK,70,44,615,70,2014-08-02T15:15:00,2,20901364,195737
OK,68,45,615,68,2014-08-02T15:20:00,3,20901813,195737
OK,68,45,615,68,2014-08-02T15:25:00,1,20902262,195737
OK,77,40,615,77,2014-08-02T15:30:00,1,20902711,195737
OK,74,41,615,74,2014-08-02T15:35:00,4,20903160,195737
OK,72,43,615,72,2014-08-02T15:40:00,4,20903609,195737
OK,82,37,615,82,2014-08-02T15:45:00,2,20904058,195737
OK,80,38,615,80,2014-08-02T15:50:00,2,20904507,195737
OK,68,45,615,68,2014-08-02T15:55:00,1,20904956,195737
OK,51,60,615,51,2014-08-02T16:00:00,1,20905405,195737
OK,51,60,615,51,2014-08-02T16:05:00,1,20905854,195737
OK,87,35,615,87,2014-08-02T16:10:00,1,20906303,195737
OK,95,32,615,95,2014-08-02T16:15:00,1,20906752,195737
OK,81,38,615,81,2014-08-02T16:20:00,2,20907201,195737
OK,95,32,615,95,2014-08-02T16:25:00,1,20907650,195737
OK,67,46,615,67,2014-08-02T16:30:00,1,20908099,195737
OK,66,47,615,66,2014-08-02T16:35:00,2,20908548,195737
OK,69,45,615,69,2014-08-02T16:40:00,1,20908997,195737
OK,69,45,615,69,2014-08-02T16:45:00,1,20909446,195737
OK,69,45,615,69,2014-08-02T16:50:00,0,20909895,195737
OK,46,67,615,46,2014-08-02T16:55:00,1,20910344,195737
OK,46,67,615,46,2014-08-02T17:00:00,1,20910793,195737
OK,46,67,615,46,2014-08-02T17:05:00,0,20911242,195737
OK,58,53,615,58,2014-08-02T17:10:00,2,20911691,195737
OK,58,53,615,58,2014-08-02T17:15:00,2,20912140,195737
OK,81,38,615,81,2014-08-02T17:20:00,2,20912589,195737
OK,81,38,615,81,2014-08-02T17:25:00,2,20913038,195737
OK,87,35,615,87,2014-08-02T17:30:00,1,20913487,195737
OK,87,35,615,87,2014-08-02T17:35:00,1,20913936,195737
OK,42,73,615,42,2014-08-02T17:40:00,1,20914385,195737
OK,42,73,615,42,2014-08-02T17:45:00,1,20914834,195737
OK,87,35,615,87,2014-08-02T17:50:00,0,20915283,195737
OK,72,43,615,72,2014-08-02T17:55:00,1,20915732,195737
OK,42,73,615,42,2014-08-02T18:00:00,2,20916181,195737
OK,42,73,615,42,2014-08-02T18:05:00,2,20916630,195737
OK,38,81,615,38,2014-08-02T18:10:00,1,20917079,195737
OK,47,66,615,47,2014-08-02T18:15:00,2,20917528,195737
OK,79,39,615,79,2014-08-02T18:20:00,2,20917977,195737
OK,62,50,615,62,2014-08-02T18:25:00,5,20918426,195737
OK,60,51,615,60,2014-08-02T18:30:00,5,20918875,195737
OK,63,49,615,63,2014-08-02T18:35:00,3,20919324,195737
OK,61,50,615,61,2014-08-02T18:40:00,3,20919773,195737
OK,64,48,615,64,2014-08-02T18:45:00,4,20920222,195737
OK,68,45,615,68,2014-08-02T18:50:00,2,20920671,195737
OK,68,45,615,68,2014-08-02T18:55:00,0,20921120,195737
OK,69,45,615,69,2014-08-02T19:00:00,1,20921569,195737
OK,69,45,615,69,2014-08-02T19:05:00,0,20922018,195737
OK,75,41,615,75,2014-08-02T19:10:00,1,20922467,195737
OK,56,55,615,56,2014-08-02T19:15:00,2,20922916,195737
OK,64,48,615,64,2014-08-02T19:20:00,2,20923365,195737
OK,63,49,615,63,2014-08-02T19:25:00,1,20923814,195737
OK,63,49,615,63,2014-08-02T19:30:00,0,20924263,195737
OK,63,49,615,63,2014-08-02T19:35:00,0,20924712,195737